Printer-friendly version

IAU Minor Planet Center

Minor Planet Center

MPEC 2004-F83 : 2000 YE2

The following Minor Planet Electronic Circular may be linked-to from your own Web pages, but must not otherwise be redistributed electronically.


Read MPEC 2004-F82 Read MPEC 2004-F84


M.P.E.C. 2004-F83                                Issued 2004 Mar. 30, 00:07 UT

     The Minor Planet Electronic Circulars contain information on unusual
         minor planets and routine data on comets.  They are published
   on behalf of Commission 20 of the International Astronomical Union by the
          Minor Planet Center, Smithsonian Astrophysical Observatory,
                          Cambridge, MA 02138, U.S.A.

         Supported in part by the Steven and Michele Kirsch Foundation
             Prepared using the Tamkin Foundation Computer Network

                              MPC@CFA.HARVARD.EDU
          URL http://cfa-www.harvard.edu/iau/mpc.html  ISSN 1523-6714

                                   2000 YE2

                           Revision to MPEC 2000-Y19

Additional Observations:
     K00Y02E  C2002 11 29.28335 03 51 03.68 +19 04 58.3                 EF083568
     K00Y02E  C2002 11 30.25206 03 50 58.59 +19 04 42.0          23.9 R EF083568
     K00Y02E  C2002 11 30.28801 03 50 58.41 +19 04 41.3          24.2 R EF083568
     K00Y02E  C2002 11 30.32542 03 50 58.21 +19 04 40.8          24.2 R EF083568
     K00Y02E  C2003 10 28.19232 04 00 28.28 +19 27 24.7                 EF083309
     K00Y02E  C2003 10 28.24405 04 00 28.04 +19 27 23.6                 EF083309
     K00Y02E  C2003 10 29.23996 04 00 23.48 +19 27 08.9                 EF083309

Observer details:
309 Cerro Paranal.  Observer J.-M. Petit.  ESO 8.2-m UT4 Telescope + CCD.
568 Mauna Kea.  Observers J.-M. Petit, J. Kavelaars, L. Allen.  Measurer
    J.-M. Petit.  3.6-m Canada-France-Hawaii Telescope + CCD.

First and last observations above in comparison with prediction:
Residuals in seconds of arc (or two decimals in degrees) and reference
021129 568 0.21+ 0.08+    031029 309 0.34+ 0.12+    MPO  8572

Orbital elements:
2000 YE2
Epoch 2004 July 14.0 TT = JDT 2453200.5                 MPC
M 334.01932              (2000.0)            P               Q
n   0.00302538     Peri.  236.07579     -0.18539783     -0.98153977
a  47.3459936      Node   224.68457     +0.92219252     -0.15727677
e   0.1941996      Incl.    3.83088     +0.33939447     -0.10882876
P 326              H    8.3           G   0.15           U   5
Residuals in seconds of arc
001217 695  0.1-  0.3+    021129 568  0.0   0.3-    031028 309  0.3-  0.3+
001217 695  0.3+  0.2+    021130 568  0.1-  0.1-    031028 309  0.2-  0.1-
001217 695  0.5-  0.2-    021130 568  0.1+  0.2-    031029 309  0.4+  0.3+
001218 695  0.2+  0.0     021130 568  0.1+  0.1-

Ephemeris:
2000 YE2                 a,e,i = 47.35, 0.19, 4                  q = 38.151
Date    TT    R. A. (2000) Decl.     Delta      r     Elong.  Phase     V
2004 03 26    03 55.41   +19 12.7   40.132   39.570    55.1     1.2    24.5
2004 04 05    03 56.22   +19 15.1   40.262   39.567    45.5     1.0    24.5
2004 04 15    03 57.15   +19 17.9   40.372   39.564    35.9     0.9    24.5

2004 07 04    04 05.98   +19 41.6   40.324   39.539    39.0     0.9    24.5
2004 07 14    04 06.89   +19 43.7   40.205   39.536    48.3     1.1    24.5
2004 07 24    04 07.67   +19 45.4   40.067   39.533    57.7     1.2    24.5
2004 08 03    04 08.31   +19 46.7   39.914   39.530    67.1     1.4    24.5
2004 08 13    04 08.80   +19 47.6   39.750   39.527    76.6     1.4    24.5
2004 08 23    04 09.13   +19 48.0   39.580   39.524    86.1     1.5    24.5
2004 09 02    04 09.28   +19 47.9   39.407   39.521    95.7     1.5    24.5
2004 09 12    04 09.26   +19 47.4   39.238   39.518   105.4     1.4    24.4
2004 09 22    04 09.07   +19 46.4   39.076   39.515   115.2     1.3    24.4
2004 10 02    04 08.71   +19 45.0   38.927   39.512   125.1     1.2    24.4
2004 10 12    04 08.20   +19 43.2   38.795   39.509   135.1     1.0    24.4
2004 10 22    04 07.56   +19 41.1   38.684   39.506   145.2     0.8    24.4
2004 11 01    04 06.81   +19 38.8   38.598   39.503   155.3     0.6    24.3
2004 11 11    04 05.98   +19 36.2   38.540   39.500   165.5     0.4    24.3
2004 11 21    04 05.10   +19 33.6   38.511   39.496   175.7     0.1    24.2
2004 12 01    04 04.20   +19 30.9   38.513   39.493   173.7     0.2    24.3
2004 12 11    04 03.33   +19 28.4   38.546   39.490   163.4     0.4    24.3
2004 12 21    04 02.51   +19 26.1   38.608   39.487   153.0     0.6    24.3
2004 12 31    04 01.78   +19 24.0   38.698   39.484   142.7     0.9    24.4
2005 01 10    04 01.17   +19 22.4   38.812   39.481   132.3     1.1    24.4
2005 01 20    04 00.70   +19 21.1   38.948   39.478   122.0     1.2    24.4
2005 01 30    04 00.39   +19 20.3   39.099   39.475   111.8     1.3    24.4
2005 02 09    04 00.25   +19 20.1   39.262   39.472   101.6     1.4    24.4
2005 02 19    04 00.29   +19 20.4   39.431   39.469    91.5     1.4    24.5
2005 03 01    04 00.52   +19 21.2   39.600   39.466    81.5     1.4    24.5
2005 03 11    04 00.91   +19 22.5   39.765   39.463    71.6     1.4    24.5
2005 03 21    04 01.48   +19 24.2   39.921   39.460    61.8     1.3    24.5
2005 03 31    04 02.20   +19 26.4   40.064   39.457    52.1     1.1    24.5
2005 04 10    04 03.05   +19 28.8   40.188   39.454    42.4     1.0    24.5
2005 04 20    04 04.02   +19 31.6   40.291   39.451    32.9     0.8    24.4

Brian G. Marsden             (C) Copyright 2004 MPC           M.P.E.C. 2004-F83

Read MPEC 2004-F82 Read MPEC 2004-F84


Our Web policy. Index to the CBAT/MPC/ICQ pages.


Valid HTML 4.01!